This is the latest recevied weather packets stored in our database for station/object KE0TNI-13. If no packets are shown the sender has not sent any weather packets the latest 10 day(s).
| Time | Temp. | Humidity | Pressure | Rain* | Wind** | Luminosity | Snow |
|---|---|---|---|---|---|---|---|
| 1777676074 | 6.67° C | 43% | 1022.6 hPa | 0 mm | - | 525 W/m² | - |
| 1777675770 | 6.67° C | 43% | 1022.8 hPa | 0 mm | - | 197 W/m² | - |
| 1777675467 | 6.11° C | 46% | 1022.6 hPa | 0 mm | - | 193 W/m² | - |
| 1777675164 | 6.11° C | 47% | 1022.7 hPa | 0 mm | - | 200 W/m² | - |
| 1777674861 | 6.11° C | 42% | 1022.6 hPa | 0 mm | - | 146 W/m² | - |
| 1777674557 | 6.11° C | 46% | 1022.6 hPa | 0 mm | - | 102 W/m² | - |
| 1777674255 | 7.22° C | 42% | 1022.6 hPa | 0 mm | - | 117 W/m² | - |
| 1777673950 | 8.33° C | 46% | 1022.8 hPa | 0 mm | - | 156 W/m² | - |
| 1777673648 | 8.33° C | 43% | 1022.6 hPa | 0 mm | - | 486 W/m² | - |
| 1777673345 | 7.78° C | 44% | 1022.7 hPa | 0 mm | - | 801 W/m² | - |
| 1777673042 | 7.78° C | 44% | 1022.7 hPa | 0 mm | - | 389 W/m² | - |
| 1777672738 | 7.78° C | 47% | 1022.7 hPa | 0 mm | - | 804 W/m² | - |
| 1777672435 | 6.67° C | 55% | 1022.8 hPa | 0 mm | - | 790 W/m² | - |
| 1777672131 | 7.22° C | 47% | 1022.7 hPa | 0.51 mm | - | 233 W/m² | - |
| 1777671826 | 6.67° C | 48% | 1022.7 hPa | 0 mm | - | 420 W/m² | - |
| 1777671522 | 6.11° C | 54% | 1022.8 hPa | 0.51 mm | - | 902 W/m² | - |
| 1777671219 | 5.56° C | 54% | 1023.1 hPa | 0.51 mm | - | 255 W/m² | - |
| 1777670914 | 5° C | 51% | 1023.2 hPa | 0 mm | - | 201 W/m² | - |
| 1777670611 | 5.56° C | 57% | 1022.8 hPa | 0.51 mm | - | 196 W/m² | - |
| 1777670308 | 5.56° C | 51% | 1023 hPa | 0.51 mm | - | 170 W/m² | - |
| 1777670006 | 6.67° C | 51% | 1023 hPa | 0.51 mm | - | 163 W/m² | - |
| 1777669703 | 7.22° C | 49% | 1023 hPa | 1.27 mm | - | 491 W/m² | - |
| 1777669400 | 6.11° C | 58% | 1023.2 hPa | 0.51 mm | - | 1047 W/m² | - |
| 1777669096 | 5.56° C | 57% | 1023 hPa | 0 mm | - | 181 W/m² | - |
| 1777668793 | 6.11° C | 53% | 1023 hPa | 1.27 mm | - | 168 W/m² | - |
* Rain latest hour (hover to see other rain measurements)
** Current wind speed in m/s (hover to see current wind gust speed)